Volver al catálogo

FENGYUN 1C DEB

ActivoPO
NORAD 38728·DEBRIS·🇨🇳 China

Lanzado May 10, 1999 desde Taiyuan Satellite Launch Center

Loading…

Próximos Pases (próximas 24 horas)

TLE

ActualizadoSource: Space-Track

Época: Sep 12, 2026, 06:49 UTC

1 38728U 99025ETV 26255.28405271  .00002844  00000-0  42521-3 0  9997
2 38728  99.2583 285.6905 0068212 290.7154 132.5317 14.74178463696376

Sigue FENGYUN 1C DEB en tiempo real con AllMySat

Download on the App Store